DELTA 1 DEB, 21297

Orbit data source: Space-Track

DELTA 1 DEB, 21297 is space debris in SSO originally from a launch on Thu, 12 Jun 1975 UTC launched from the Air Force Western Test Range (AFWTR). Debris objects in space refer to the collection of defunct objects orbiting the Earth. Examples of debris include non-operational satellites, rocket bodies, and fragments generated from explosions, collisions, or faulty payload assembly.

Loading next visibility...
Identifier
21297, 1975-052AJ
Orbit
SSO
Country
Flag of USUS
Related business
Manufacturer
Unknown
Mission
Spacecraft
Bus & Motor
Unknown
Mass
Unknown
Launch date (UTC)
1975-06-12 (51 years ago)
Launch vehicle
Unknown
Launch site
Air Force Western Test Range (AFWTR)
Object type
Payload
Rocket body
Debris
Shape & HBR
Unknown shape, 0.4 m
Radar Cross Section
Medium (>0.1 m² and <1 m²)

Expand to show TLE details & history
Last TLE update: 5 hours ago

TLE from 5 hours ago
0 DELTA 1 DEB
1 21297U 75052AJ  26127.13946692  .00000066  00000-0  21557-3 0  9993
2 21297  99.6797 318.3438 0071116  65.7305  44.8953 13.33294047700727
Epoch: 2026-05-07T03:20Z
TLE epoch observation values (Epoch: 2026-05-07T03:20:49.941Z)
Latitude
66.86639°
Longitude
-113.45107°
Altitude
1,108.184 km
Speed
7.323 km/s
True Right ascension
10h 46m 59s
True Declination
66° 44' 52"
Sunlit
Object was in daylight at epoch
Visualization orbit readout
Latitude
Unknown
Longitude
Unknown
Altitude
Unknown
Speed
Unknown
Apparent Right ascension
Unknown
Apparent Declination
Unknown
Sunlit
N/A
Visualization observer readout
Local Sidereal Time
16:17:53
Azimuth
Unknown
Elevation
Unknown
Doppler factor
Unknown
Orbital elements
Apogee altitude
1,185.093 km
Perigee altitude
1,078.28 km
Semi-major axis
7,509.824 km
Eccentricity
0.00711
Inclination
99.6797°
RAAN
318.3438°
Arg. of periapsis
65.7305°
True anomaly
45.47412°
Mean anomaly
44.8953°
Eccentric anomaly
45.18435°
Mean motion
3.33502 °/min
Orbital period
107.95 mins
BSTAR
0.00021557
Loading maneuver chart data...
Computing Atmospheric mass density...
Loading historical data...
Loading historical data...
Loading historical data...
Loading historical data...
Loading historical data...
Loading historical data...
Loading historical data...

Documentation

Showing up to 5 results
|